DW7348 Weather Reports


Display with metric or nautical units.
time (UTC)temp
F
wind
direction
speed
MPH
gust
MPH
rain 1hr
in
rain 24hr
in
rain mn
in
humidity
%
barometer
mb
20260507094539 67 0 0.0 4.0 0.00 0.00 0.00 96 1011.7
20260507093047 67 25 0.0 3.0 0.00 0.00 0.00 96 1012.1
20260507091547 67 0 0.0 2.0 0.00 0.00 0.00 96 1012.3
20260507090047 67 0 0.0 4.0 0.00 0.00 0.00 96 1012.2
20260507084541 67 52 0.0 4.0 0.00 0.00 0.00 96 1012.5
20260507083041 67 0 0.0 2.0 0.00 0.00 0.00 96 1012.8
20260507081544 67 0 0.0 1.0 0.00 0.00 0.00 96 1012.3
20260507080039 67 0 0.0 2.0 0.00 0.00 0.00 96 1012.1
20260507074539 67 0 0.0 2.0 0.00 0.00 0.00 96 1012.3
20260507073052 67 0 0.0 5.0 0.00 0.00 0.00 95 1012.8
20260507071540 67 0 1.0 6.0 0.00 0.00 0.00 95 1012.5
20260507070042 67 0 0.0 3.0 0.00 0.00 0.00 95 1012.4
20260507064604 67 0 0.0 2.0 0.00 0.00 0.00 95 1013.8
20260507063056 67 0 0.0 2.0 0.00 0.00 0.00 95 1014.0
20260507061543 67 0 0.0 2.0 0.00 0.00 0.00 95 1013.3
20260507060041 67 0 0.0 3.0 0.00 0.00 0.00 95 1013.8
20260507054539 67 281 1.0 3.0 0.00 0.00 0.00 94 1013.1
20260507053044 68 84 1.0 2.0 0.00 0.00 0.00 94 1015.2
20260507051545 68 0 0.0 3.0 0.00 0.00 0.00 94 1014.0
20260507050044 68 0 0.0 8.0 0.00 0.00 0.00 94 1014.4
20260507044540 68 59 1.0 6.0 0.00 0.00 0.00 94 1015.0
20260507043038 69 73 0.0 6.0 0.00 0.00 0.00 94 1013.9
20260507041544 69 0 1.0 6.0 0.00 0.00 0.00 93 1014.7
20260507040052 69 100 1.0 9.0 0.00 0.00 0.00 93 1014.7
20260507034556 69 0 2.0 12.0 0.00 0.00 0.00 93 1014.1
20260507033057 69 0 0.0 7.0 0.00 0.00 0.00 92 1014.3
20260507031545 70 0 0.0 2.0 0.00 0.00 0.00 91 1014.7
20260507030039 70 0 0.0 3.0 0.00 0.00 0.00 91 1014.9
20260507024554 70 94 0.0 7.0 0.00 0.00 0.00 90 1015.2
20260507023044 71 0 1.0 6.0 0.00 0.00 0.00 89 1014.6
20260507021541 71 57 0.0 6.0 0.00 0.00 0.00 89 1014.6
20260507020039 72 0 0.0 5.0 0.00 0.00 0.00 87 1014.5
20260507014538 73 0 0.0 1.0 0.00 0.00 0.00 86 1014.0
20260507013040 74 0 0.0 1.0 0.00 0.00 0.00 84 1013.9
20260507011545 74 0 0.0 2.0 0.00 0.00 0.00 81 1014.4
20260507010043 75 0 0.0 1.0 0.00 0.00 0.00 81 1013.8
20260507004540 75 0 0.0 0.0 0.00 0.00 0.00 81 1013.8
20260507003039 75 0 0.0 0.0 0.00 0.00 0.00 80 1013.8
20260507001603 75 0 0.0 2.0 0.00 0.00 0.00 80 1014.1
20260507000038 76 0 0.0 0.0 0.00 0.00 0.00 79 1014.1
20260506234549 77 0 0.0 1.0 0.00 0.00 0.00 78 1013.7
20260506233040 77 0 0.0 2.0 0.00 0.00 0.00 77 1013.9
20260506231538 78 0 0.0 0.0 0.00 0.00 0.00 75 1013.3
20260506230039 79 0 0.0 2.0 0.00 0.00 0.00 72 1013.4
20260506224600 80 0 0.0 3.0 0.00 0.00 0.00 70 1014.0
20260506223041 80 346 1.0 4.0 0.00 0.00 0.00 65 1013.0
20260506221541 81 108 0.0 6.0 0.00 0.00 0.00 65 1014.0
20260506220045 82 104 1.0 6.0 0.00 0.00 0.00 64 1014.0
20260506214539 82 0 0.0 3.0 0.00 0.00 0.00 63 1013.3
20260506213037 83 47 1.0 6.0 0.00 0.00 0.00 63 1013.9
20260506211553 83 98 3.0 9.0 0.00 0.00 0.00 60 1013.7
20260506210046 84 95 5.0 10.0 0.00 0.00 0.00 59 1014.0
20260506204541 84 0 1.0 7.0 0.00 0.00 0.00 60 1014.2
20260506203057 84 74 1.0 8.0 0.00 0.00 0.00 58 1014.4
20260506201539 84 126 4.0 11.0 0.00 0.00 0.00 58 1014.8
20260506200037 84 147 2.0 8.0 0.00 0.00 0.00 60 1015.0
20260506194546 84 82 2.0 11.0 0.00 0.00 0.00 59 1015.4
20260506193048 84 0 1.0 10.0 0.00 0.00 0.00 59 1015.5
20260506191539 83 150 2.0 9.0 0.00 0.00 0.00 60 1015.7
20260506190039 84 61 2.0 11.0 0.00 0.00 0.00 58 1015.7
20260506184543 85 104 1.0 10.0 0.00 0.00 0.00 59 1015.9
20260506183042 83 63 4.0 15.0 0.00 0.00 0.00 60 1016.0
20260506181550 83 118 4.0 11.0 0.00 0.00 0.00 59 1016.1
20260506180040 83 55 1.0 11.0 0.00 0.00 0.00 61 1016.2
20260506174547 81 118 3.0 11.0 0.00 0.00 0.00 62 1016.1
20260506173107 80 117 0.0 8.0 0.00 0.00 0.00 64 1016.4
20260506171549 79 101 3.0 10.0 0.00 0.00 0.00 65 1016.7
20260506170041 78 122 1.0 7.0 0.00 0.00 0.00 65 1016.9
20260506164538 77 136 2.0 11.0 0.00 0.00 0.00 67 1017.1
20260506163039 76 90 4.0 14.0 0.00 0.00 0.00 69 1017.5
20260506161543 76 104 3.0 12.0 0.00 0.00 0.00 70 1017.6
20260506160046 76 74 4.0 10.0 0.00 0.00 0.00 69 1017.9
20260506154544 75 115 3.0 10.0 0.00 0.00 0.00 72 1017.9
20260506153037 74 130 5.0 16.0 0.00 0.00 0.00 72 1018.1
20260506151546 73 143 5.0 12.0 0.00 0.00 0.00 78 1017.8
20260506150048 72 109 3.0 16.0 0.00 0.00 0.00 81 1017.5
20260506144543 71 93 4.0 11.0 0.00 0.00 0.00 84 1017.5
20260506143039 70 0 1.0 7.0 0.00 0.00 0.00 86 1017.2
20260506141538 69 56 2.0 9.0 0.00 0.00 0.00 86 1017.0
20260506140038 68 0 2.0 6.0 0.00 0.00 0.00 86 1016.8
20260506134547 67 109 1.0 6.0 0.00 0.00 0.00 87 1016.4
20260506133040 66 88 2.0 8.0 0.00 0.00 0.00 88 1016.4
20260506131552 65 119 2.0 5.0 0.00 0.00 0.00 89 1016.6
20260506130041 65 89 1.0 10.0 0.00 0.00 0.00 89 1016.8
20260506124538 64 84 1.0 3.0 0.00 0.00 0.00 90 1016.6
20260506123045 63 0 0.0 0.0 0.00 0.00 0.00 90 1016.3
20260506121541 63 0 0.0 0.0 0.00 0.00 0.00 90 1016.3
20260506120040 62 0 0.0 0.0 0.00 0.00 0.00 90 1016.2
20260506114538 62 0 0.0 0.0 0.00 0.00 0.00 90 1016.1
20260506113047 62 0 0.0 0.0 0.00 0.00 0.00 89 1015.9
20260506111544 61 0 0.0 0.0 0.00 0.00 0.00 89 1015.7
20260506110041 61 0 0.0 0.0 0.00 0.00 0.00 89 1015.4
20260506104547 61 0 0.0 0.0 0.00 0.00 0.00 88 1015.2
20260506103040 61 0 0.0 0.0 0.00 0.00 0.00 88 1015.0
20260506101538 61 0 0.0 0.0 0.00 0.00 0.00 87 1014.6
20260506100039 61 0 0.0 0.0 0.00 0.00 0.00 87 1014.3